Weather History for Kalamazoo, MI

Change the Weather History Date:

Saturday, December 21, 2013

  Actual Average Record
Temperature  
Mean Temperature 34 °F 27 °F  
Max Temperature 35 °F 33 °F 59 °F (1949)
Min Temperature 33 °F 21 °F -2 °F (2000)
Degree Days  
Heating Degree Days 31 38  
Month to date heating degree days 801 733  
Since 1 July heating degree days 2158 2060  
Cooling Degree Days 0 0  
Month to date cooling degree days 0 0  
Year to date cooling degree days 725 675  
Moisture  
Dew Point 31 °F    
Average Humidity 91    
Maximum Humidity 100    
Minimum Humidity 82    
Precipitation  
Precipitation 0.44 in 0.06 in 1.66 in (1967)
Month to date precipitation 1.17 1.44  
Year to date precipitation 39.14 35.20  
Sea Level Pressure  
Sea Level Pressure 29.80 in    
Wind  
Wind Speed 5 mph (NE)    
Max Wind Speed 16 mph    
Max Gust Speed 25 mph    
Visibility 3 miles    
Events Fog , Rain    
T = Trace of Precipitation, MM = Missing Value Source: NWS Daily Summary

Daily Weather History Graph

Daily Weather History Graph

Search for Another Location

Airport:

Trip Planner

Search our weather history database for the weather conditions in past years. The results will help you decide how hot, cold, wet, or windy it might be!

Date:

Astronomy

Dec. 21, 2013 Rise Set
Actual Time 8:07 AM EST 5:13 PM EST
Civil Twilight 7:35 AM EST 5:45 PM EST
Nautical Twilight 7:00 AM EST 6:20 PM EST
Astronomical Twilight 6:26 AM EST 6:54 PM EST
Moon 9:33 PM EST (12/21) 10:29 AM EST (12/21)
Length of Visible Light 10h 09m
Length of Day
9h 05m
Waning Gibbous, 84% of the Moon is Illuminated
Dec 21
Waning Gibbous
Dec 25
Last Quarter
Jan 1
New
Jan 7
First Quarter
Jan 15
Full

Hourly Weather History & Observations

Time (EST) Temp. Windchill Dew Point Humidity Pressure Visibility Wind Dir Wind Speed Gust Speed Precip Events Conditions
12:53 AM 33.1 °F - 32.0 °F 96% - 0.5 mi Calm Calm - N/A Fog Fog
1:53 AM 33.1 °F - 32.0 °F 96% - 0.5 mi Calm Calm - N/A Fog Fog
2:53 AM 33.1 °F - 32.0 °F 96% - 0.5 mi Calm Calm - N/A Fog Fog
3:53 AM 33.1 °F 30.0 °F 33.1 °F 100% - 0.8 mi WNW 3.5 mph - N/A   Mist
4:53 AM 33.1 °F 28.7 °F 32.0 °F 96% - 1.0 mi WNW 4.6 mph - N/A   Mist
5:01 AM 33.8 °F - 32.0 °F 93% - 0.8 mi Calm Calm - N/A   Mist
5:17 AM 33.8 °F - 32.0 °F 93% - 1.0 mi Calm Calm - N/A   Mist
5:35 AM 33.8 °F 30.8 °F 32.0 °F 93% - 0.8 mi SSW 3.5 mph - N/A   Mist
5:53 AM 33.1 °F - 32.0 °F 96% 29.83 in 0.8 mi Calm Calm - N/A   Mist
6:53 AM 33.1 °F - 32.0 °F 96% 29.83 in 0.5 mi Calm Calm - N/A Fog Fog
7:53 AM 33.1 °F 28.7 °F 32.0 °F 96% 29.88 in 0.8 mi NW 4.6 mph - N/A Fog Fog
8:53 AM 33.1 °F - 32.0 °F 96% 29.87 in 1.0 mi Calm Calm - N/A   Overcast
9:53 AM 33.1 °F 28.7 °F 30.9 °F 92% 29.87 in 1.0 mi NE 4.6 mph - N/A   Overcast
10:53 AM 34.0 °F 28.8 °F 32.0 °F 92% 29.86 in 1.0 mi East 5.8 mph - N/A   Overcast
11:00 AM 33.8 °F 29.6 °F 32.0 °F 93% 29.82 in 1.0 mi East 4.6 mph - N/A   Overcast
11:10 AM 33.8 °F 30.8 °F 32.0 °F 93% 29.82 in 2.0 mi ENE 3.5 mph - N/A   Overcast
11:53 AM 34.0 °F 29.8 °F 32.0 °F 92% 29.87 in 2.5 mi East 4.6 mph - 0.00 in   Overcast
12:53 PM 34.0 °F 31.0 °F 30.9 °F 89% 29.85 in 2.5 mi ENE 3.5 mph - 0.00 in Rain Light Rain
1:42 PM 33.8 °F 29.6 °F 32.0 °F 93% 29.81 in 2.5 mi ENE 4.6 mph - 0.01 in Rain Light Rain
1:53 PM 34.0 °F 29.8 °F 32.0 °F 92% 29.84 in 2.5 mi NE 4.6 mph - 0.02 in Rain Light Rain
2:53 PM 34.0 °F 28.8 °F 30.9 °F 89% 29.82 in 2.5 mi NNE 5.8 mph - 0.03 in Rain Light Rain
3:53 PM 33.1 °F 27.7 °F 30.9 °F 92% 29.82 in 3.0 mi ENE 5.8 mph - 0.02 in Rain Light Rain
4:53 PM 33.1 °F 27.7 °F 30.9 °F 92% 29.80 in 3.0 mi NE 5.8 mph - 0.02 in Rain Light Rain
5:53 PM 33.1 °F 26.9 °F 30.0 °F 89% 29.79 in 3.0 mi NE 6.9 mph - 0.03 in Rain Light Rain
6:53 PM 33.1 °F 26.1 °F 30.0 °F 89% 29.83 in 3.0 mi NE 8.1 mph - 0.06 in Rain Rain
7:06 PM 33.8 °F 28.6 °F 30.2 °F 87% 29.81 in 3.0 mi NE 5.8 mph - 0.02 in Rain Light Freezing Rain
7:27 PM 33.8 °F 27.0 °F 30.2 °F 87% 29.81 in 3.0 mi NE 8.1 mph - 0.06 in Rain Light Rain
7:53 PM 33.1 °F 26.9 °F 30.0 °F 89% 29.83 in 5.0 mi NE 6.9 mph - 0.09 in Rain Light Rain
8:53 PM 33.1 °F 25.5 °F 28.9 °F 85% 29.78 in 5.0 mi ENE 9.2 mph 19.6 mph 0.04 in Rain Light Rain
9:53 PM 33.1 °F 24.9 °F 28.9 °F 85% 29.70 in 7.0 mi NE 10.4 mph 18.4 mph 0.04 in Rain Light Rain
10:42 PM 33.8 °F 26.4 °F 30.2 °F 87% 29.67 in 9.0 mi NE 9.2 mph - 0.06 in Rain Light Rain
10:53 PM 33.1 °F 24.9 °F 28.9 °F 85% 29.70 in 10.0 mi ENE 10.4 mph 16.1 mph 0.06 in Rain Light Rain
11:44 PM 33.8 °F 27.0 °F 28.4 °F 81% 29.66 in 10.0 mi NE 8.1 mph - 0.03 in Rain Light Freezing Rain
11:53 PM 33.1 °F 24.4 °F 30.0 °F 89% 29.68 in 10.0 mi ENE 11.5 mph 17.3 mph 0.03 in Rain Light Freezing Rain